TimeEST,TemperatureF,Dew PointF,Humidity,Sea Level PressureIn,VisibilityMPH,Wind Direction,Wind SpeedMPH,Gust SpeedMPH,PrecipitationIn,Events,Conditions,WindDirDegrees,DateUTC
12:04 AM,46.4,42.8,87,30.15,8.0,NW,4.6,-,N/A,,Scattered Clouds,320,2013-01-07 05:04:00
12:25 AM,46.4,42.8,87,30.16,7.0,NNW,8.1,-,N/A,,Mostly Cloudy,330,2013-01-07 05:25:00
12:45 AM,46.4,42.8,87,30.17,7.0,NW,6.9,-,N/A,,Mostly Cloudy,320,2013-01-07 05:45:00
12:54 AM,45.0,42.1,90,30.17,7.0,NW,5.8,-,N/A,,Scattered Clouds,320,2013-01-07 05:54:00
1:54 AM,44.1,39.9,85,30.18,10.0,NNW,6.9,-,N/A,,Scattered Clouds,330,2013-01-07 06:54:00
2:54 AM,41.0,37.9,89,30.19,10.0,NNW,4.6,-,N/A,,Clear,330,2013-01-07 07:54:00
3:54 AM,39.9,37.0,89,30.21,10.0,NW,4.6,-,N/A,,Clear,310,2013-01-07 08:54:00
4:54 AM,39.0,35.1,86,30.22,10.0,WNW,3.5,-,N/A,,Clear,300,2013-01-07 09:54:00
5:54 AM,37.9,34.0,86,30.25,10.0,NW,4.6,-,N/A,,Clear,320,2013-01-07 10:54:00
6:54 AM,34.0,32.0,92,30.29,9.0,Calm,Calm,-,N/A,,Clear,0,2013-01-07 11:54:00
7:54 AM,37.9,32.0,79,30.31,10.0,North,8.1,-,N/A,,Clear,350,2013-01-07 12:54:00
8:54 AM,43.0,34.0,71,30.37,10.0,North,9.2,-,N/A,,Clear,10,2013-01-07 13:54:00
9:54 AM,46.9,36.0,66,30.40,10.0,NNE,8.1,-,N/A,,Clear,30,2013-01-07 14:54:00
10:54 AM,50.0,34.0,54,30.39,10.0,ENE,12.7,-,N/A,,Clear,70,2013-01-07 15:54:00
11:54 AM,51.1,34.0,52,30.39,10.0,NE,11.5,-,N/A,,Clear,40,2013-01-07 16:54:00
12:54 PM,52.0,34.0,50,30.38,10.0,NNE,10.4,-,N/A,,Clear,20,2013-01-07 17:54:00
2:54 PM,52.0,33.1,49,30.40,10.0,NNE,8.1,-,N/A,,Clear,20,2013-01-07 19:54:00
3:54 PM,52.0,32.0,47,30.41,10.0,ENE,6.9,-,N/A,,Clear,70,2013-01-07 20:54:00
4:54 PM,50.0,33.1,52,30.42,10.0,ENE,5.8,-,N/A,,Clear,70,2013-01-07 21:54:00
6:54 PM,44.1,33.1,65,30.45,10.0,East,5.8,-,N/A,,Clear,100,2013-01-07 23:54:00
7:54 PM,42.1,33.1,70,30.46,10.0,ESE,3.5,-,N/A,,Clear,120,2013-01-08 00:54:00
8:54 PM,37.0,32.0,82,30.46,10.0,East,3.5,-,N/A,,Clear,90,2013-01-08 01:54:00
9:54 PM,39.9,34.0,79,30.47,10.0,East,3.5,-,N/A,,Clear,90,2013-01-08 02:54:00
10:54 PM,37.9,33.1,83,30.45,10.0,ENE,3.5,-,N/A,,Clear,60,2013-01-08 03:54:00
11:54 PM,37.9,33.1,83,30.43,10.0,NE,4.6,-,N/A,,Clear,50,2013-01-08 04:54:00